SKYNET 5C

Last updated on Fri Jun 19 2026 17:09:30 GMT+0000 (Coordinated Universal Time)

1 33055U 08030A 26170.17653510 -.00000147 00000+0 00000+0 0 9992 2 33055 3.7950 77.0184 0004027 18.7456 217.4003 1.00271637 65974
UTC large
Height (km)
Speed (km/s)
/
Latitude / Longitude
Inclination (degrees)
Orbital Period (minutes)
Azimuth
Elevation
Range (km)
Doppler Factor

Next 0 passes for location: London (51.5072 / 0.1276)

Sorry there are no passes over London.
SKYNET 5C